This demonstration page uses our WeatherBlox Daily Observations layout. Learn more.

Left ArrowRight Arrow

Hourly Observations for May 3, 2017

Temp ( °F °C ) Dew Point ( °F °C ) Humidity (%) Winds ( mph kmh ) Pressure ( in mb ) Visibility ( mi km ) Precip ( " mm )
12:53 am 00:53 Clear 72 22.2 41 5 33 33 SE 13 20 29.66 1004 10 16 0.00 0.00
1:53 am 01:53 Clear 69 20.6 41 5 36 36 SE 10 17 29.65 1004 10 16 0.00 0.00
2:53 am 02:53 Clear 63 17.2 42 5.6 47 47 SE 7 11 29.65 1004 10 16 0.00 0.00
3:53 am 03:53 Clear 60 15.6 42 5.6 52 52 SE 9 15 29.63 1004 10 16 0.00 0.00
4:53 am 04:53 Clear 59 15 43 6.1 56 56 SE 9 15 29.63 1004 10 16 0.00 0.00
5:53 am 05:53 Clear 55 12.8 43 6.1 64 64 NNW 3 6 29.67 1005 10 16 0.00 0.00
6:53 am 06:53 Clear 55 12.8 43 6.1 64 64 N 13 20 29.71 1006 10 16 0.00 0.00
7:53 am 07:53 Sunny 58 14.4 48 8.9 70 70 N 18 30 29.78 1008 10 16 0.00 0.00
8:53 am 08:53 Sunny 63 17.2 49 9.4 60 60 N 20 31 29.82 1010 10 16 0.00 0.00
9:53 am 09:53 Sunny 67 19.4 48 8.9 51 51 N 25 41 29.86 1011 10 16 0.00 0.00
10:53 am 10:53 Sunny 68 20 46 7.8 45 45 NNE 24 39 29.90 1012 10 16 0.00 0.00
11:53 am 11:53 Sunny 72 22.2 46 7.8 40 40 NNE 21 33 29.91 1013 10 16 0.00 0.00
12:53 pm 12:53 Sunny 75 23.9 45 7.2 34 34 N 18 30 29.91 1013 10 16 0.00 0.00
1:53 pm 13:53 Sunny 77 25 44 6.7 31 31 N 14 22 29.90 1013 10 16 0.00 0.00
2:53 pm 14:53 Sunny 79 26.1 40 4.4 25 25 NE 15 24 29.90 1012 10 16 0.00 0.00
3:53 pm 15:53 Sunny 80 26.7 39 3.9 23 23 VRB 7 11 29.89 1012 10 16 0.00 0.00
4:53 pm 16:53 Sunny 81 27.2 38 3.3 21 21 N 17 28 29.88 1012 10 16 0.00 0.00
5:53 pm 17:53 Sunny 82 27.8 37 2.8 20 20 NNE 15 24 29.87 1012 10 16 0.00 0.00
6:53 pm 18:53 Sunny 80 26.7 36 2.2 20 20 N 9 15 29.89 1012 10 16 0.00 0.03
7:53 pm 19:53 Sunny with Light Rain 78 25.6 37 2.8 23 23 NNE 13 20 29.90 1013 10 16 0.00 0.03
8:53 pm 20:53 Clear with Light Rain 73 22.8 38 3.3 28 28 ENE 9 15 29.91 1013 10 16 0.00 0.03
9:53 pm 21:53 Clear with Light Rain 68 20 38 3.3 33 33 E 8 13 29.95 1014 10 16 0.00 0.03
10:53 pm 22:53 Clear 65 18.3 38 3.3 37 37 ENE 10 17 30.00 1016 10 16 0.00 0.03
11:53 pm 23:53 Clear 64 17.8 39 3.9 40 40 ENE 8 13 30.03 1017 10 16 0.00 0.00

Powered by AerisWeather